Location: Bas-Clignon
(44.2000°N, 6.6333°E)
Time: 01:35:44
(UTC+00:00)

Cosmos 2278 Rocket - Pass Details

Date: 03 February 2023
Orbit: 841 x 845 km, 71.0° (Epoch: 27 March)

Event Time Altitude Azimuth Distance (km) Brightness Sun altitude
Rises 18:12:28 0° 344° (NNW) 3,415 5.5 -15.8°
Reaches altitude 10° 18:16:02 10° 7° (N) 2,475 4.5 -16.5°
Enters shadow 18:18:55 16° 38° (NE) 2,106 3.9 -17.0°
